Date,TemperatureHighF,TemperatureAvgF,TemperatureLowF,DewpointHighF,DewpointAvgF,DewpointLowF,HumidityHigh,HumidityAvg,HumidityLow,PressureMaxIn,PressureMinIn,WindSpeedMaxMPH,WindSpeedAvgMPH,GustSpeedMaxMPH,PrecipitationSumIn
2013-8-1,67.3,60.4,54.2,56.9,54.7,52.5,95,82,69,30.06,30.02,8,1,9,0.00
2013-8-2,59.6,58.0,56.4,57.6,55.5,53.0,96,91,86,30.14,30.05,6,0,6,0.19
2013-8-3,73.4,62.1,55.6,59.5,56.6,53.1,97,84,56,30.15,30.06,11,1,11,0.00
2013-8-4,77.0,63.3,50.7,61.2,55.9,49.4,97,79,54,30.08,29.95,13,2,13,0.00
2013-8-5,81.3,65.3,53.3,62.3,56.4,51.6,95,75,49,30.02,29.93,10,2,10,0.00
2013-8-6,82.3,63.7,49.2,59.2,53.2,47.3,94,71,40,30.01,29.93,9,2,9,0.00
2013-8-7,82.1,64.9,51.1,60.1,54.2,49.2,94,71,43,30.02,29.95,10,1,10,0.00
2013-8-8,81.3,64.6,54.5,61.8,56.2,52.5,95,76,50,30.04,29.94,10,1,10,0.00
2013-8-9,82.3,65.4,51.5,59.7,55.3,49.8,95,72,45,29.97,29.84,10,1,10,0.00
2013-8-10,78.6,63.8,58.2,64.7,58.9,55.4,96,85,60,30.02,29.88,9,1,9,0.15
2013-8-11,74.0,61.0,55.4,59.7,55.3,52.1,93,82,60,30.08,30.00,9,1,9,0.00
2013-8-12,78.5,62.3,53.9,58.3,54.8,51.2,93,78,47,30.08,30.01,11,1,11,0.00
2013-8-13,80.3,63.7,53.6,58.8,54.8,51.4,95,75,46,30.11,29.94,10,2,10,0.00
2013-8-14,56.8,55.0,53.4,51.6,50.9,50.0,89,86,82,29.95,29.94,3,1,3,0.00
2013-8-15,69.0,63.1,60.3,64.5,60.9,58.7,96,93,83,30.00,29.93,5,1,8,0.04
2013-8-16,81.5,67.1,59.3,63.1,59.4,49.5,97,79,40,30.01,29.94,11,1,11,0.00
2013-8-17,73.0,63.7,55.7,61.1,57.2,53.4,93,80,63,30.08,30.00,10,1,10,0.00
2013-8-18,72.8,62.5,57.3,60.7,56.2,53.3,92,80,64,30.12,30.08,11,1,11,0.00
2013-8-19,76.0,63.7,58.1,59.9,55.4,51.5,86,75,52,30.11,30.07,11,2,11,0.00
2013-8-20,74.0,63.0,54.7,54.6,51.7,49.0,87,68,44,30.18,30.09,13,2,13,0.00
2013-8-21,77.0,64.1,51.9,54.8,51.0,47.8,88,65,42,30.10,29.94,18,3,18,0.00
2013-8-22,80.6,66.5,52.0,56.9,53.0,48.4,89,64,40,29.96,29.81,11,2,11,0.00
2013-8-23,75.0,64.5,58.4,58.0,55.6,53.0,89,74,49,29.89,29.83,13,2,13,0.00
2013-8-24,71.9,61.7,55.8,59.9,56.2,52.5,94,83,60,29.93,29.87,11,1,11,0.01
2013-8-25,70.5,61.0,51.5,55.7,53.2,49.8,96,77,56,29.96,29.87,10,1,10,0.00
2013-8-26,75.0,61.6,54.2,59.1,54.3,50.1,92,79,43,29.96,29.85,19,2,19,0.05
2013-8-27,76.9,64.3,57.4,61.0,57.1,53.0,93,79,54,29.96,29.80,10,1,10,0.02
2013-8-28,77.6,65.2,57.0,63.7,59.4,55.3,97,83,55,29.90,29.83,8,1,8,0.20
2013-8-29,71.1,64.0,60.8,65.5,62.1,59.4,97,93,81,30.00,29.85,11,1,11,0.78
2013-8-30,76.2,64.7,57.8,60.2,57.2,53.8,95,78,49,30.14,30.00,11,1,11,0.00
2013-8-31,76.8,63.6,54.5,58.5,55.3,52.3,94,76,48,30.09,29.85,12,1,12,0.00